,,Stat5,,Stat1,,Stat2,,Stat3,,Stat4,,Wind1,,Wind1,
time,status,PA1M_AVG,status,PR1M_SUM,status,RH1M_AVG,status,SR1M_AVG,status,TA1M_AVG,status,W1dAve1m,status,W1sAve1m,
2002-01-09, 00:00:00,VALID,919.582,VALID,0,VALID,85.9579,VALID,0.0169808,VALID,20.9144,VALID,143,VALID,2.03984,
2002-01-09, 00:01:00,VALID,919.582,VALID,0,VALID,86.0406,VALID,0,VALID,20.9211,VALID,132,VALID,1.4043,
2002-01-09, 00:02:00,VALID,919.575,VALID,0,VALID,86.2161,VALID,0.0169808,VALID,20.9119,VALID,146,VALID,1.08454,
2002-01-09, 00:03:00,VALID,919.582,VALID,0,VALID,86.2796,VALID,0.0509425,VALID,20.8686,VALID,131,VALID,2.15358,
2002-01-09, 00:04:00,VALID,919.592,VALID,0,VALID,86.3496,VALID,0.0169808,VALID,20.85,VALID,138,VALID,1.57335,
2002-01-09, 00:05:00,VALID,919.598,VALID,0,VALID,86.417,VALID,0,VALID,20.8306,VALID,156,VALID,1.80645,
2002-01-09, 00:06:00,VALID,919.587,VALID,0,VALID,86.141,VALID,-0.0169808,VALID,20.8341,VALID,157,VALID,2.02051,
2002-01-09, 00:07:00,VALID,919.567,VALID,0,VALID,86.0024,VALID,0,VALID,20.8629,VALID,148,VALID,1.48294,
2002-01-09, 00:08:00,VALID,919.556,VALID,0,VALID,86.0736,VALID,-0.0339617,VALID,20.8758,VALID,135,VALID,1.18521,
2002-01-09, 00:09:00,VALID,919.55,VALID,0,VALID,86.2529,VALID,0,VALID,20.8764,VALID,131,VALID,1.27985,
2002-01-09, 00:10:00,VALID,919.549,VALID,0,VALID,86.4678,VALID,-0.0169808,VALID,20.8406,VALID,124,VALID,1.54793,
2002-01-09, 00:11:00,VALID,919.514,VALID,0,VALID,86.5607,VALID,0,VALID,20.8085,VALID,144,VALID,1.7979,
2002-01-09, 00:12:00,VALID,919.512,VALID,0,VALID,86.6764,VALID,0,VALID,20.7819,VALID,144,VALID,1.71579,
2002-01-09, 00:13:00,VALID,919.473,VALID,0,VALID,86.7183,VALID,0,VALID,20.7827,VALID,148,VALID,2.08157,
2002-01-09, 00:14:00,VALID,919.444,VALID,0,VALID,86.6242,VALID,0,VALID,20.7697,VALID,144,VALID,2.21799,
2002-01-09, 00:15:00,VALID,919.41,VALID,0,VALID,86.6395,VALID,0,VALID,20.7593,VALID,136,VALID,1.43369,
2002-01-09, 00:16:00,VALID,919.412,VALID,0,VALID,86.8074,VALID,0,VALID,20.7563,VALID,143,VALID,1.32392,
2002-01-09, 00:17:00,VALID,919.411,VALID,0,VALID,86.8468,VALID,-0.0169808,VALID,20.7302,VALID,144,VALID,1.85238,
2002-01-09, 00:18:00,VALID,919.411,VALID,0,VALID,86.9256,VALID,0.0169808,VALID,20.7173,VALID,136,VALID,1.8341,
2002-01-09, 00:19:00,VALID,919.41,VALID,0,VALID,86.9383,VALID,0.0169808,VALID,20.7046,VALID,129,VALID,1.27995,
2002-01-09, 00:20:00,VALID,919.366,VALID,0,VALID,87.082,VALID,0,VALID,20.7016,VALID,138,VALID,1.73745,
2002-01-09, 00:21:00,VALID,919.373,VALID,0,VALID,87.1583,VALID,0,VALID,20.6795,VALID,132,VALID,2.09101,
2002-01-09, 00:22:00,VALID,919.349,VALID,0,VALID,87.2041,VALID,-0.0849042,VALID,20.6677,VALID,154,VALID,1.37017,
2002-01-09, 00:23:00,VALID,919.322,VALID,0,VALID,87.2728,VALID,-0.101885,VALID,20.6445,VALID,129,VALID,1.29329,
2002-01-09, 00:24:00,VALID,919.305,VALID,0,VALID,87.4635,VALID,-0.0849042,VALID,20.6281,VALID,122,VALID,0.910156,
2002-01-09, 00:25:00,VALID,919.301,VALID,0,VALID,87.5818,VALID,-0.101885,VALID,20.603,VALID,150,VALID,0.899465,
2002-01-09, 00:26:00,VALID,919.302,VALID,0,VALID,87.6568,VALID,-0.101885,VALID,20.5802,VALID,150,VALID,1.70089,
2002-01-09, 00:27:00,VALID,919.306,VALID,0,VALID,87.6822,VALID,-0.0679233,VALID,20.5675,VALID,146,VALID,1.53695,
2002-01-09, 00:28:00,VALID,919.3,VALID,0,VALID,87.7852,VALID,-0.101885,VALID,20.5519,VALID,138,VALID,1.81066,
2002-01-09, 00:29:00,VALID,919.281,VALID,0,VALID,87.8259,VALID,-0.101885,VALID,20.5422,VALID,144,VALID,2.21073,
2002-01-09, 00:30:00,VALID,919.257,VALID,0,VALID,87.7801,VALID,-0.101885,VALID,20.5417,VALID,152,VALID,2.77441,
2002-01-09, 00:31:00,VALID,919.22,VALID,0,VALID,87.4215,VALID,-0.101885,VALID,20.5742,VALID,151,VALID,2.46575,
2002-01-09, 00:32:00,VALID,919.215,VALID,0,VALID,87.4241,VALID,-0.101885,VALID,20.6351,VALID,110,VALID,1.27902,
2002-01-09, 00:33:00,VALID,919.23,VALID,0,VALID,87.3503,VALID,-0.101885,VALID,20.6388,VALID,147,VALID,1.79519,
2002-01-09, 00:34:00,VALID,919.198,VALID,0,VALID,87.358,VALID,-0.101885,VALID,20.6453,VALID,140,VALID,2.05997,
2002-01-09, 00:35:00,VALID,919.193,VALID,0,VALID,87.4292,VALID,-0.101885,VALID,20.6491,VALID,131,VALID,1.83214,
2002-01-09, 00:36:00,VALID,919.198,VALID,0,VALID,87.5055,VALID,-0.118866,VALID,20.6259,VALID,123,VALID,1.81949,
2002-01-09, 00:37:00,VALID,919.178,VALID,0,VALID,87.611,VALID,-0.0339617,VALID,20.6087,VALID,132,VALID,1.53577,
2002-01-09, 00:38:00,VALID,919.175,VALID,0,VALID,87.6886,VALID,-0.0169808,VALID,20.5953,VALID,114,VALID,1.57344,
2002-01-09, 00:39:00,VALID,919.181,VALID,0,VALID,87.8196,VALID,-0.0339617,VALID,20.5923,VALID,132,VALID,1.51668,
2002-01-09, 00:40:01,VALID,919.173,VALID,0,VALID,87.9238,VALID,-0.0339617,VALID,20.5896,VALID,139,VALID,2.14223,
2002-01-09, 00:41:00,VALID,919.171,VALID,0,VALID,87.8781,VALID,-0.0339617,VALID,20.5665,VALID,136,VALID,1.91997,
2002-01-09, 00:42:00,VALID,919.17,VALID,0,VALID,87.6606,VALID,0,VALID,20.5891,VALID,138,VALID,1.78223,
2002-01-09, 00:43:00,VALID,919.149,VALID,0,VALID,87.6898,VALID,0,VALID,20.6216,VALID,142,VALID,1.67127,
2002-01-09, 00:44:00,VALID,919.143,VALID,0,VALID,87.5983,VALID,-0.0169808,VALID,20.6211,VALID,154,VALID,1.76406,
2002-01-09, 00:45:00,VALID,919.149,VALID,0,VALID,87.6924,VALID,0,VALID,20.6211,VALID,137,VALID,1.5378,
2002-01-09, 00:46:00,VALID,919.127,VALID,0,VALID,87.8043,VALID,-0.0169808,VALID,20.6179,VALID,119,VALID,1.26585,
2002-01-09, 00:47:00,VALID,919.119,VALID,0,VALID,87.9493,VALID,0,VALID,20.6182,VALID,131,VALID,1.17758,
2002-01-09, 00:48:00,VALID,919.091,VALID,0,VALID,88.037,VALID,0,VALID,20.6085,VALID,139,VALID,1.46073,
2002-01-09, 00:49:00,VALID,919.083,VALID,0,VALID,87.9467,VALID,0.0169808,VALID,20.5953,VALID,131,VALID,1.74979,
2002-01-09, 00:50:00,VALID,919.063,VALID,0,VALID,87.8361,VALID,0,VALID,20.5921,VALID,117,VALID,1.8183,
2002-01-09, 00:51:00,VALID,919.053,VALID,0,VALID,87.8005,VALID,0,VALID,20.6082,VALID,142,VALID,0.935811,
2002-01-09, 00:52:01,VALID,919.048,VALID,0,VALID,87.7534,VALID,0,VALID,20.6179,VALID,148,VALID,1.94462,
2002-01-09, 00:53:00,VALID,919.052,VALID,0,VALID,87.5703,VALID,0.0339617,VALID,20.6244,VALID,135,VALID,2.45249,
2002-01-09, 00:54:00,VALID,919.053,VALID,0,VALID,87.4928,VALID,0,VALID,20.6696,VALID,141,VALID,1.30542,
2002-01-09, 00:55:00,VALID,919.047,VALID,0,VALID,87.2778,VALID,0,VALID,20.6823,VALID,128,VALID,2.06651,
2002-01-09, 00:56:00,VALID,919.067,VALID,0,VALID,87.4063,VALID,0,VALID,20.7054,VALID,111,VALID,1.85179,
2002-01-09, 00:57:00,VALID,919.057,VALID,0,VALID,87.7229,VALID,0.0339617,VALID,20.689,VALID,122,VALID,1.71453,
2002-01-09, 00:58:00,VALID,919.071,VALID,0,VALID,87.7496,VALID,0,VALID,20.6661,VALID,138,VALID,1.62477,
2002-01-09, 00:59:00,VALID,919.064,VALID,0,VALID,87.7738,VALID,0,VALID,20.6502,VALID,124,VALID,2.06187,
2002-01-09, 01:00:00,VALID,919.042,VALID,0,VALID,87.995,VALID,0,VALID,20.6271,VALID,129,VALID,1.39391,
2002-01-09, 01:01:00,VALID,919.061,VALID,0,VALID,88.0968,VALID,0.0169808,VALID,20.6346,VALID,148,VALID,1.65769,
2002-01-09, 01:02:00,VALID,919.061,VALID,0,VALID,88.1692,VALID,0,VALID,20.6313,VALID,123,VALID,2.0529,
2002-01-09, 01:03:00,VALID,919.061,VALID,0,VALID,88.3651,VALID,0.0169808,VALID,20.6149,VALID,114,VALID,1.57622,
2002-01-09, 01:04:01,VALID,919.072,VALID,0,VALID,88.3816,VALID,-0.0169808,VALID,20.6176,VALID,118,VALID,1.767,
2002-01-09, 01:05:00,VALID,919.08,VALID,0,VALID,88.6601,VALID,0,VALID,20.6112,VALID,117,VALID,1.27133,
2002-01-09, 01:06:00,VALID,919.05,VALID,0,VALID,88.4999,VALID,0,VALID,20.605,VALID,140,VALID,2.65063,
2002-01-09, 01:07:00,VALID,919.035,VALID,0,VALID,88.6283,VALID,-0.0849042,VALID,20.6259,VALID,117,VALID,2.05509,
2002-01-09, 01:08:00,VALID,919.029,VALID,0,VALID,88.6817,VALID,-0.101885,VALID,20.603,VALID,107,VALID,2.67723,
2002-01-09, 01:09:00,VALID,919.053,VALID,0,VALID,88.6652,VALID,-0.101885,VALID,20.6028,VALID,84,VALID,2.0492,
2002-01-09, 01:10:00,VALID,919.04,VALID,0,VALID,88.9538,VALID,-0.101885,VALID,20.6098,VALID,114,VALID,1.66337,
2002-01-09, 01:11:00,VALID,919.029,VALID,0,VALID,89.1586,VALID,-0.101885,VALID,20.5834,VALID,100,VALID,1.22551,
2002-01-09, 01:12:00,VALID,919.026,VALID,0,VALID,89.3429,VALID,-0.101885,VALID,20.5648,VALID,104,VALID,1.72903,
2002-01-09, 01:13:00,VALID,919.023,VALID,0,VALID,89.3035,VALID,-0.0849042,VALID,20.5258,VALID,134,VALID,2.44161,
2002-01-09, 01:14:00,VALID,918.999,VALID,0,VALID,89.6278,VALID,-0.101885,VALID,20.5196,VALID,130,VALID,1.96228,
2002-01-09, 01:15:00,VALID,919.006,VALID,0,VALID,89.8897,VALID,-0.101885,VALID,20.4838,VALID,114,VALID,1.36064,
2002-01-09, 01:16:01,VALID,918.996,VALID,0,VALID,89.9724,VALID,-0.0849042,VALID,20.4587,VALID,112,VALID,2.03929,
2002-01-09, 01:17:01,VALID,918.985,VALID,0,VALID,90.1479,VALID,-0.101885,VALID,20.4321,VALID,126,VALID,2.09628,
2002-01-09, 01:18:01,VALID,918.994,VALID,0,VALID,90.2178,VALID,-0.101885,VALID,20.4127,VALID,139,VALID,2.47485,
2002-01-09, 01:19:00,VALID,918.979,VALID,0,VALID,90.2254,VALID,-0.101885,VALID,20.4027,VALID,112,VALID,2.67067,
2002-01-09, 01:20:00,VALID,918.967,VALID,0,VALID,90.3094,VALID,-0.101885,VALID,20.4134,VALID,135,VALID,2.1029,
2002-01-09, 01:21:00,VALID,918.944,VALID,0,VALID,90.4696,VALID,-0.101885,VALID,20.4162,VALID,125,VALID,2.31292,
2002-01-09, 01:22:00,VALID,918.911,VALID,0,VALID,90.701,VALID,0,VALID,20.4116,VALID,109,VALID,2.26172,
2002-01-09, 01:23:00,VALID,918.911,VALID,0,VALID,90.8434,VALID,0,VALID,20.3885,VALID,131,VALID,1.94827,
2002-01-09, 01:24:00,VALID,918.912,VALID,0,VALID,90.9286,VALID,0,VALID,20.3691,VALID,128,VALID,1.91838,
2002-01-09, 01:25:00,VALID,918.912,VALID,0,VALID,91.0532,VALID,0,VALID,20.3498,VALID,130,VALID,1.65173,
2002-01-09, 01:26:00,VALID,918.91,VALID,0,VALID,91.1995,VALID,0.0169808,VALID,20.3339,VALID,121,VALID,2.04174,
2002-01-09, 01:27:00,VALID,918.913,VALID,0,VALID,91.3851,VALID,0.0169808,VALID,20.3207,VALID,128,VALID,1.23416,
2002-01-09, 01:28:01,VALID,918.906,VALID,0,VALID,91.4411,VALID,-0.0169808,VALID,20.3145,VALID,125,VALID,1.68244,
2002-01-09, 01:29:00,VALID,918.898,VALID,0,VALID,91.5428,VALID,0,VALID,20.3018,VALID,125,VALID,1.20735,
2002-01-09, 01:30:00,VALID,918.907,VALID,0,VALID,91.6369,VALID,0.0169808,VALID,20.2986,VALID,124,VALID,0.94458,
2002-01-09, 01:31:00,VALID,918.909,VALID,0,VALID,91.6763,VALID,0,VALID,20.2754,VALID,124,VALID,2.22476,
2002-01-09, 01:32:00,VALID,918.903,VALID,0,VALID,91.5568,VALID,0,VALID,20.2727,VALID,135,VALID,2.42723,
2002-01-09, 01:33:00,VALID,918.887,VALID,0,VALID,91.6522,VALID,0,VALID,20.2787,VALID,144,VALID,1.75465,
2002-01-09, 01:34:00,VALID,918.856,VALID,0,VALID,91.7425,VALID,0.0169808,VALID,20.266,VALID,144,VALID,1.97817,
2002-01-09, 01:35:00,VALID,918.847,VALID,0,VALID,91.9294,VALID,-0.0169808,VALID,20.2563,VALID,138,VALID,1.79856,
2002-01-09, 01:36:00,VALID,918.838,VALID,0,VALID,92.1786,VALID,0.0169808,VALID,20.2238,VALID,145,VALID,1.34683,
2002-01-09, 01:37:00,VALID,918.828,VALID,0,VALID,92.405,VALID,0,VALID,20.2014,VALID,148,VALID,1.4266,
2002-01-09, 01:38:00,VALID,918.819,VALID,0,VALID,92.5258,VALID,0,VALID,20.1696,VALID,139,VALID,1.62054,
2002-01-09, 01:39:00,VALID,918.812,VALID,0,VALID,92.5232,VALID,0,VALID,20.1398,VALID,134,VALID,1.8636,
2002-01-09, 01:40:01,VALID,918.821,VALID,0,VALID,92.6148,VALID,-0.0169808,VALID,20.1502,VALID,145,VALID,1.87385,
2002-01-09, 01:41:00,VALID,918.812,VALID,0,VALID,92.611,VALID,0,VALID,20.1303,VALID,139,VALID,1.76267,
2002-01-09, 01:42:00,VALID,918.793,VALID,0,VALID,92.6224,VALID,0,VALID,20.1438,VALID,149,VALID,1.95068,
2002-01-09, 01:43:00,VALID,918.769,VALID,0,VALID,92.686,VALID,0.0169808,VALID,20.1301,VALID,155,VALID,2.03446,
2002-01-09, 01:44:00,VALID,918.753,VALID,0,VALID,92.7941,VALID,0.0339617,VALID,20.1303,VALID,142,VALID,1.91228,
2002-01-09, 01:45:00,VALID,918.762,VALID,0,VALID,92.9276,VALID,0,VALID,20.1179,VALID,136,VALID,1.49916,
2002-01-09, 01:46:00,VALID,918.769,VALID,0,VALID,93.0268,VALID,0,VALID,20.1152,VALID,141,VALID,1.63856,
2002-01-09, 01:47:00,VALID,918.75,VALID,0,VALID,93.0713,VALID,0,VALID,20.0985,VALID,141,VALID,1.64992,
2002-01-09, 01:48:00,VALID,918.755,VALID,0,VALID,93.1883,VALID,-0.0339617,VALID,20.0824,VALID,148,VALID,1.72307,
2002-01-09, 01:49:00,VALID,918.716,VALID,0,VALID,93.2976,VALID,-0.0169808,VALID,20.0695,VALID,132,VALID,1.42167,
2002-01-09, 01:50:00,VALID,918.695,VALID,0,VALID,93.3625,VALID,0,VALID,20.0695,VALID,142,VALID,1.38237,
2002-01-09, 01:51:00,VALID,918.692,VALID,0,VALID,93.4502,VALID,0,VALID,20.056,VALID,147,VALID,1.53421,
2002-01-09, 01:52:01,VALID,918.697,VALID,0,VALID,93.4019,VALID,-0.0849042,VALID,20.0511,VALID,123,VALID,1.72955,
2002-01-09, 01:53:01,VALID,918.676,VALID,0,VALID,93.2531,VALID,-0.101885,VALID,20.0476,VALID,141,VALID,1.63915,
2002-01-09, 01:54:01,VALID,918.666,VALID,0,VALID,93.1488,VALID,-0.0509425,VALID,20.0705,VALID,139,VALID,1.62939,
2002-01-09, 01:55:00,VALID,918.662,VALID,0,VALID,93.187,VALID,-0.0849042,VALID,20.0767,VALID,145,VALID,1.17488,
2002-01-09, 01:56:00,VALID,918.631,VALID,0,VALID,93.1883,VALID,-0.101885,VALID,20.0831,VALID,148,VALID,1.76741,
2002-01-09, 01:57:00,VALID,918.611,VALID,0,VALID,93.056,VALID,-0.0849042,VALID,20.0831,VALID,142,VALID,1.7859,
2002-01-09, 01:58:00,VALID,918.623,VALID,0,VALID,92.9899,VALID,-0.0509425,VALID,20.1063,VALID,135,VALID,1.51034,
2002-01-09, 01:59:00,VALID,918.614,VALID,0,VALID,92.8589,VALID,-0.0849042,VALID,20.1092,VALID,149,VALID,1.57221,
2002-01-09, 02:00:00,VALID,918.604,VALID,0,VALID,92.864,VALID,-0.0679233,VALID,20.1157,VALID,142,VALID,1.40728,
2002-01-09, 02:01:00,VALID,918.628,VALID,0,VALID,92.925,VALID,-0.0679233,VALID,20.1256,VALID,141,VALID,1.40461,
2002-01-09, 02:02:00,VALID,918.616,VALID,0,VALID,92.9505,VALID,-0.0509425,VALID,20.1224,VALID,156,VALID,1.78795,
2002-01-09, 02:03:00,VALID,918.6,VALID,0,VALID,92.9835,VALID,-0.0849042,VALID,20.1189,VALID,136,VALID,1.66807,
2002-01-09, 02:04:01,VALID,918.578,VALID,0,VALID,93.1209,VALID,-0.0679233,VALID,20.1154,VALID,150,VALID,1.72978,
2002-01-09, 02:05:00,VALID,918.577,VALID,0,VALID,93.1857,VALID,-0.0169808,VALID,20.1058,VALID,131,VALID,1.45735,
2002-01-09, 02:06:00,VALID,918.563,VALID,0,VALID,93.2862,VALID,-0.0509425,VALID,20.0995,VALID,144,VALID,1.57471,
2002-01-09, 02:07:00,VALID,918.559,VALID,0,VALID,93.2442,VALID,0.0169808,VALID,20.0757,VALID,143,VALID,1.2522,
2002-01-09, 02:08:00,VALID,918.546,VALID,0,VALID,93.2671,VALID,0.0509425,VALID,20.0625,VALID,143,VALID,1.39129,
2002-01-09, 02:09:00,VALID,918.53,VALID,0,VALID,93.276,VALID,0.0509425,VALID,20.0657,VALID,148,VALID,1.5853,
2002-01-09, 02:10:01,VALID,918.52,VALID,0,VALID,93.3739,VALID,0.0509425,VALID,20.0526,VALID,139,VALID,1.39959,
2002-01-09, 02:11:00,VALID,918.515,VALID,0,VALID,93.4133,VALID,0,VALID,20.0431,VALID,145,VALID,1.80089,
2002-01-09, 02:12:00,VALID,918.501,VALID,0,VALID,93.1781,VALID,0.0339617,VALID,20.027,VALID,132,VALID,1.73026,
2002-01-09, 02:13:00,VALID,918.496,VALID,0,VALID,92.9937,VALID,0.0169808,VALID,20.0339,VALID,142,VALID,1.47163,
2002-01-09, 02:14:00,VALID,918.504,VALID,0,VALID,92.8996,VALID,0.0169808,VALID,20.0461,VALID,127,VALID,1.60804,
2002-01-09, 02:15:00,VALID,918.486,VALID,0,VALID,92.8729,VALID,0.0339617,VALID,20.0657,VALID,141,VALID,1.79962,
2002-01-09, 02:16:01,VALID,918.494,VALID,0,VALID,92.6504,VALID,0.0169808,VALID,20.0754,VALID,140,VALID,1.82858,
2002-01-09, 02:17:00,VALID,918.469,VALID,0,VALID,92.3325,VALID,0,VALID,20.0951,VALID,122,VALID,1.61318,
2002-01-09, 02:18:00,VALID,918.441,VALID,0,VALID,91.9434,VALID,0.0509425,VALID,20.1174,VALID,156,VALID,3.14453,
2002-01-09, 02:19:01,VALID,918.442,VALID,0,VALID,91.965,VALID,0.0339617,VALID,20.143,VALID,134,VALID,2.32452,
2002-01-09, 02:20:01,VALID,918.418,VALID,0,VALID,91.5708,VALID,0.0339617,VALID,20.1433,VALID,106,VALID,2.40826,
2002-01-09, 02:21:01,VALID,918.398,VALID,0,VALID,91.1664,VALID,0,VALID,20.1661,VALID,143,VALID,2.14358,
2002-01-09, 02:22:01,VALID,918.385,VALID,0,VALID,90.9274,VALID,0.0509425,VALID,20.2113,VALID,131,VALID,2.2847,
2002-01-09, 02:23:00,VALID,918.388,VALID,0,VALID,90.879,VALID,0.0169808,VALID,20.2337,VALID,142,VALID,2.31377,
2002-01-09, 02:24:01,VALID,918.375,VALID,0,VALID,90.9426,VALID,0.0169808,VALID,20.2464,VALID,98,VALID,1.76974,
2002-01-09, 02:25:00,VALID,918.37,VALID,0,VALID,90.8943,VALID,0.0509425,VALID,20.2496,VALID,129,VALID,1.75905,
2002-01-09, 02:26:00,VALID,918.355,VALID,0,VALID,90.5039,VALID,0.0339617,VALID,20.2364,VALID,128,VALID,1.74174,
2002-01-09, 02:27:00,VALID,918.348,VALID,0,VALID,90.4492,VALID,0.0169808,VALID,20.2765,VALID,145,VALID,1.01415,
2002-01-09, 02:28:01,VALID,918.331,VALID,0,VALID,90.453,VALID,0.0509425,VALID,20.2857,VALID,125,VALID,1.62247,
2002-01-09, 02:29:01,VALID,918.325,VALID,0,VALID,90.3437,VALID,0.0169808,VALID,20.2886,VALID,146,VALID,1.6837,
2002-01-09, 02:30:01,VALID,918.309,VALID,0,VALID,90.4899,VALID,0.0339617,VALID,20.2951,VALID,113,VALID,1.479,
2002-01-09, 02:31:01,VALID,918.322,VALID,0,VALID,90.8193,VALID,0.0339617,VALID,20.2921,VALID,104,VALID,1.64223,
2002-01-09, 02:32:01,VALID,918.318,VALID,0,VALID,90.8994,VALID,0.0169808,VALID,20.2568,VALID,87,VALID,1.44241,
2002-01-09, 02:33:01,VALID,918.291,VALID,0,VALID,90.6921,VALID,0.0849042,VALID,20.2369,VALID,78,VALID,1.05448,
2002-01-09, 02:34:01,VALID,918.272,VALID,0,VALID,90.7798,VALID,0.0169808,VALID,20.2536,VALID,137,VALID,1.37592,
2002-01-09, 02:35:01,VALID,918.243,VALID,0,VALID,90.7214,VALID,0.0339617,VALID,20.2466,VALID,72,VALID,1.2141,
2002-01-09, 02:36:01,VALID,918.237,VALID,0,VALID,90.3729,VALID,0.0679233,VALID,20.2561,VALID,124,VALID,2.125,
2002-01-09, 02:37:01,VALID,918.235,VALID,0,VALID,90.0538,VALID,0.0169808,VALID,20.269,VALID,149,VALID,2.53495,
2002-01-09, 02:38:01,VALID,918.224,VALID,0,VALID,89.9164,VALID,0,VALID,20.3015,VALID,141,VALID,1.54777,
2002-01-09, 02:39:01,VALID,918.219,VALID,0,VALID,89.7562,VALID,0.0509425,VALID,20.3209,VALID,155,VALID,1.61318,
2002-01-09, 02:40:01,VALID,918.195,VALID,0,VALID,89.9037,VALID,0.0169808,VALID,20.3406,VALID,113,VALID,1.26333,
2002-01-09, 02:41:01,VALID,918.208,VALID,0,VALID,90.1529,VALID,0,VALID,20.3239,VALID,65,VALID,1.54012,
2002-01-09, 02:42:01,VALID,918.19,VALID,0,VALID,89.6481,VALID,0,VALID,20.301,VALID,81,VALID,2.22485,
2002-01-09, 02:43:01,VALID,918.189,VALID,0,VALID,89.1293,VALID,0,VALID,20.3505,VALID,55,VALID,1.81951,
2002-01-09, 02:44:01,VALID,918.216,VALID,0,VALID,89.1268,VALID,0.0169808,VALID,20.4054,VALID,69,VALID,1.3529,
2002-01-09, 02:45:01,VALID,918.238,VALID,0,VALID,88.9042,VALID,0,VALID,20.4275,VALID,112,VALID,1.20439,
2002-01-09, 02:46:01,VALID,918.231,VALID,0,VALID,89.0238,VALID,0,VALID,20.4246,VALID,101,VALID,0.946691,
2002-01-09, 02:47:01,VALID,918.218,VALID,0,VALID,88.9335,VALID,0.0339617,VALID,20.4337,VALID,137,VALID,1.30215,
2002-01-09, 02:48:01,VALID,918.19,VALID,0,VALID,88.9309,VALID,0.0509425,VALID,20.4434,VALID,137,VALID,1.24918,
2002-01-09, 02:49:01,VALID,918.195,VALID,0,VALID,88.9462,VALID,0.0169808,VALID,20.4402,VALID,136,VALID,2.77878,
2002-01-09, 02:50:00,VALID,918.183,VALID,0,VALID,88.9284,VALID,0.0679233,VALID,20.4273,VALID,104,VALID,2.2404,
2002-01-09, 02:51:00,VALID,918.19,VALID,0,VALID,89.1242,VALID,0.0849042,VALID,20.427,VALID,99,VALID,2.1421,
2002-01-09, 02:52:00,VALID,918.166,VALID,0,VALID,89.0772,VALID,-0.0679233,VALID,20.4159,VALID,129,VALID,1.15924,
2002-01-09, 02:53:00,VALID,918.173,VALID,0,VALID,88.6626,VALID,-0.101885,VALID,20.4266,VALID,122,VALID,2.22867,
2002-01-09, 02:54:00,VALID,918.16,VALID,0,VALID,88.435,VALID,-0.101885,VALID,20.4353,VALID,130,VALID,2.15991,
2002-01-09, 02:55:00,VALID,918.153,VALID,0,VALID,88.5062,VALID,-0.101885,VALID,20.4748,VALID,119,VALID,1.63041,
2002-01-09, 02:56:00,VALID,918.16,VALID,0,VALID,88.5596,VALID,-0.101885,VALID,20.4778,VALID,105,VALID,1.82835,
2002-01-09, 02:57:00,VALID,918.156,VALID,0,VALID,88.4871,VALID,-0.0849042,VALID,20.4783,VALID,116,VALID,1.63345,
2002-01-09, 02:58:00,VALID,918.147,VALID,0,VALID,88.7262,VALID,-0.101885,VALID,20.4713,VALID,112,VALID,0.839844,
2002-01-09, 02:59:00,VALID,918.145,VALID,0,VALID,88.8585,VALID,-0.101885,VALID,20.4549,VALID,118,VALID,1.06651,
2002-01-09, 03:00:00,VALID,918.131,VALID,0,VALID,88.978,VALID,-0.101885,VALID,20.4487,VALID,124,VALID,1.34025,
2002-01-09, 03:01:00,VALID,918.118,VALID,0,VALID,89.2209,VALID,-0.118866,VALID,20.4229,VALID,128,VALID,1.52899,
2002-01-09, 03:02:00,VALID,918.117,VALID,0,VALID,89.1547,VALID,-0.101885,VALID,20.3938,VALID,141,VALID,1.57589,
2002-01-09, 03:03:00,VALID,918.095,VALID,0,VALID,89.1204,VALID,-0.0849042,VALID,20.3839,VALID,90,VALID,1.84586,
2002-01-09, 03:04:00,VALID,918.078,VALID,0,VALID,89.0136,VALID,-0.101885,VALID,20.3903,VALID,141,VALID,2.29412,
2002-01-09, 03:05:00,VALID,918.071,VALID,0,VALID,88.6512,VALID,-0.101885,VALID,20.4005,VALID,117,VALID,2.83763,
2002-01-09, 03:06:00,VALID,918.055,VALID,0,VALID,88.5622,VALID,-0.118866,VALID,20.4196,VALID,130,VALID,1.5105,
2002-01-09, 03:07:00,VALID,918.033,VALID,0,VALID,88.8012,VALID,-0.0169808,VALID,20.431,VALID,167,VALID,1.54167,
2002-01-09, 03:08:00,VALID,917.994,VALID,0,VALID,88.8152,VALID,0,VALID,20.4275,VALID,152,VALID,1.47812,
2002-01-09, 03:09:00,VALID,917.974,VALID,0,VALID,89.006,VALID,-0.0169808,VALID,20.4211,VALID,146,VALID,1.27851,
2002-01-09, 03:10:00,VALID,917.963,VALID,0,VALID,89.1344,VALID,0,VALID,20.4022,VALID,103,VALID,1.5579,
2002-01-09, 03:11:00,VALID,917.939,VALID,0,VALID,89.0632,VALID,0,VALID,20.3833,VALID,79,VALID,1.0758,
2002-01-09, 03:12:00,VALID,917.947,VALID,0,VALID,88.9831,VALID,0,VALID,20.3664,VALID,141,VALID,1.70107,
2002-01-09, 03:13:00,VALID,917.943,VALID,0,VALID,88.3714,VALID,0,VALID,20.3823,VALID,109,VALID,2.21587,
2002-01-09, 03:14:00,VALID,917.948,VALID,0,VALID,88.4248,VALID,0,VALID,20.4149,VALID,120,VALID,1.33214,
2002-01-09, 03:15:00,VALID,917.957,VALID,0,VALID,88.51,VALID,-0.0339617,VALID,20.4208,VALID,137,VALID,1.70946,
2002-01-09, 03:16:00,VALID,917.965,VALID,0,VALID,88.6906,VALID,-0.0169808,VALID,20.4278,VALID,116,VALID,1.15648,
2002-01-09, 03:17:00,VALID,917.96,VALID,0,VALID,88.6779,VALID,-0.0169808,VALID,20.4079,VALID,160,VALID,1.32665,
2002-01-09, 03:18:00,VALID,917.938,VALID,0,VALID,88.3015,VALID,-0.0169808,VALID,20.4251,VALID,123,VALID,0.795166,
2002-01-09, 03:19:00,VALID,917.906,VALID,0,VALID,88.2417,VALID,0,VALID,20.4442,VALID,82,VALID,1.00982,
2002-01-09, 03:20:00,VALID,917.901,VALID,0,VALID,88.1527,VALID,-0.0339617,VALID,20.4542,VALID,84,VALID,1.38884,
2002-01-09, 03:21:00,VALID,917.906,VALID,0,VALID,88.435,VALID,-0.0339617,VALID,20.4641,VALID,127,VALID,1.60557,
2002-01-09, 03:22:00,VALID,917.89,VALID,0,VALID,88.6525,VALID,-0.0169808,VALID,20.438,VALID,113,VALID,2.20473,
2002-01-09, 03:23:00,VALID,917.905,VALID,0,VALID,88.3981,VALID,-0.0169808,VALID,20.3987,VALID,99,VALID,2.78125,
2002-01-09, 03:24:00,VALID,917.88,VALID,0,VALID,88.257,VALID,0,VALID,20.3952,VALID,98,VALID,2.84046,
2002-01-09, 03:25:00,VALID,917.858,VALID,0,VALID,88.0942,VALID,-0.0169808,VALID,20.4027,VALID,89,VALID,2.35732,
2002-01-09, 03:26:00,VALID,917.825,VALID,0,VALID,88.0268,VALID,-0.0169808,VALID,20.4181,VALID,123,VALID,1.20573,
2002-01-09, 03:27:00,VALID,917.82,VALID,0,VALID,87.99,VALID,-0.0169808,VALID,20.4141,VALID,118,VALID,1.39717,
2002-01-09, 03:28:00,VALID,917.817,VALID,0,VALID,87.9302,VALID,0,VALID,20.4281,VALID,93,VALID,2.25276,
2002-01-09, 03:29:00,VALID,917.81,VALID,0,VALID,87.7572,VALID,-0.0169808,VALID,20.4213,VALID,63,VALID,2.27407,
2002-01-09, 03:30:00,VALID,917.796,VALID,0,VALID,87.7331,VALID,0,VALID,20.4507,VALID,103,VALID,2.22607,
2002-01-09, 03:31:00,VALID,917.812,VALID,0,VALID,87.8323,VALID,-0.0169808,VALID,20.4407,VALID,79,VALID,2.27905,
2002-01-09, 03:32:00,VALID,917.777,VALID,0,VALID,87.7992,VALID,0,VALID,20.445,VALID,47,VALID,3.19442,
2002-01-09, 03:33:00,VALID,917.77,VALID,0,VALID,87.433,VALID,0,VALID,20.4636,VALID,45,VALID,2.56862,
2002-01-09, 03:34:00,VALID,917.793,VALID,0,VALID,87.4355,VALID,0,VALID,20.4857,VALID,57,VALID,2.53929,
2002-01-09, 03:35:00,VALID,917.798,VALID,0,VALID,87.5207,VALID,0,VALID,20.4894,VALID,127,VALID,1.88492,